Location: ????????
(55.0559°N, 39.1270°E)
Time: 08:20:20
(UTC+00:00)

NOSS 3-2 (C) - Pass Details

Date: 15 November 2025
Orbit: 674 x 1535 km, 63.4° (Epoch: 13 November)

Event Time Altitude Azimuth Distance (km) Brightness Sun altitude
Exits shadow 01:11:41 41° 351° (N) 1,468 4.3 -31.6°
Maximum altitude 01:12:23 42° 7° (N) 1,465 4.4 -31.5°
Drops below altitude 10° 01:19:32 10° 77° (ENE) 3,201 7.1 -30.5°
Sets 01:22:49 0° 84° (E) 4,302 8.0 -30.1°
